Skip Page Navigation
NASA JPL Caltech
NASA Logo - Jet Propulsion Laboratory + View the NASA Portal
+ Center for Near-Earth Object Studies
JPL Home Earth Solar System Stars & Galaxies Technology
JPL Solar System Dynamics
BODIES ORBITS EPHEMERIDES TOOLS PHYSICAL DATA DISCOVERY FAQ SITE MAP

Significant website upgrade scheduled for September 27. More details available here.

JPL Small-Body Database Browser
Search: [ help ]  
5858 Borovitskia (1978 SU5)
Classification: Main-belt Asteroid          SPK-ID: 2005858
Ephemeris | Orbit Diagram | Orbital Elements | Mission Design | Physical Parameters | Discovery Circumstances ]

[ show orbit diagram ]
Orbital Elements at Epoch 2459396.5 (2021-Jul-01.0) TDB
Reference: JPL 41 (heliocentric ecliptic J2000)
 Element Value Uncertainty (1-sigma)   Units 
e .04627022518173939 1.7502e-08  
a 2.314560963400992 5.9069e-09 au
q 2.207465706427564 4.0648e-08 au
i 5.869810076988471 1.0903e-06 deg
node 225.2834866626734 5.2843e-06 deg
peri 305.7507904366445 1.6055e-05 deg
M 271.7075029824567 1.4786e-05 deg
tp 2459711.944283673559
(2022-May-12.44428367)
5.3258e-05 TDB
period 1286.178848242535
3.52
4.9236e-06
1.348e-08
d
yr
n .2798988651476523 1.0715e-09 deg/d
Q 2.421656220374419 6.1803e-09 au
  Orbit Determination Parameters
   # obs. used (total)      3068  
   data-arc span      29253 days (80.09 yr)  
   first obs. used      1941-02-01  
   last obs. used      2021-03-06  
   planetary ephem.      DE441  
   SB-pert. ephem.      SB441-N16  
   condition code      0  
   norm. resid. RMS      .41624  
   source      ORB  
   producer      Otto Matic  
   solution date      2021-Jul-08 14:54:52  

Additional Information
 Earth MOID = 1.21733 au 
 Jupiter MOID = 2.55336 au 
 T_jup = 3.574 
[ show covariance matrix ]

Ephemeris | Orbit Diagram | Orbital Elements | Mission Design | Physical Parameters | Discovery Circumstances ]

Physical Parameter Table
Parameter Symbol Value Units Sigma Reference Notes
absolute magnitude H 12.89   n/a E2021B10  
diameter diameter 5.629 km 0.327 urn:nasa:pds:neowise_diameters_albedos::2.0[mainbelt] (http://adsabs.harvard.edu/abs/2012ApJ...759L...8M)  
rotation period rot_per 7.553 h n/a LCDB (Rev. 2020-October); Warner et al., 2009 Published Reference List:
[Bembrick, C.; Ainsworth, T. (2003) Minor Planet Bull. 30, 25-26.]
geometric albedo albedo 0.464   0.072 urn:nasa:pds:neowise_diameters_albedos::2.0[mainbelt] (http://adsabs.harvard.edu/abs/2012ApJ...759L...8M)  

5858 Borovitskia (1978 SU5)          Discovered 1978-Sep-28 by Chernykh, L. I. at Nauchnyj
Reference: DISCOVERY.DBLast Updated: 2003-08-29

Alternate Designations
 1978 SU5 = 1941 CJ = 1952 HZ2 = 1974 QZ = 1985 VU1 
Ephemeris | Orbit Diagram | Orbital Elements | Mission Design | Physical Parameters | Discovery Circumstances ]
ABOUT SSD CREDITS/AWARDS PRIVACY/COPYRIGHT GLOSSARY LINKS
FirstGov 2021-Sep-21 12:21 UT
(server date/time)  
NASA Home Page
Site Manager:   Ryan S. Park
Webmaster  Alan B. Chamberlin